Marshalltown, IA

6:31 AM CDT on March 29, 2017 (GMT -0500)
Marshalltown Municipal

Weather History for KMIW - December, 2012

Change the Weather History Date:

Thursday, December 6, 2012

  Actual Average Record
Temperature  
Mean Temperature 43 °F 26 °F  
Max Temperature 50 °F 35 °F 51 °F (2001)
Min Temperature 35 °F 17 °F -11 °F (2005)
Degree Days  
Heating Degree Days 22 39  
Month to date heating degree days 133 228  
Since 1 July heating degree days 1524 1724  
Cooling Degree Days 0 0  
Month to date cooling degree days 0 0  
Year to date cooling degree days 1082 728  
Moisture  
Dew Point 36 °F    
Average Humidity 78    
Maximum Humidity 96    
Minimum Humidity 60    
Precipitation  
Precipitation 0.02 in 0.04 in 0.07 in (2007)
Month to date precipitation 0.02 0.27  
Sea Level Pressure  
Sea Level Pressure 29.94 in    
Wind  
Wind Speed 10 mph (SW)    
Max Wind Speed 22 mph    
Max Gust Speed 28 mph    
Visibility 10 miles    
Events Rain    
T = Trace of Precipitation, MM = Missing Value Source: NWS Daily Summary

Daily Weather History Graph

Daily Weather History Graph

Search for Another Location

Airport or City:

Trip Planner

Search our weather history database for the weather conditions in past years. The results will help you decide how hot, cold, wet, or windy it might be!

Date:

Astronomy

Dec. 06, 2012 Rise Set
Actual Time 7:25 AM CST 4:39 PM CST
Civil Twilight 6:54 AM CST 5:11 PM CST
Nautical Twilight 6:19 AM CST 5:46 PM CST
Astronomical Twilight 5:45 AM CST 6:20 PM CST
Moon No Moon Rise 12:12 PM CST (12/6)
Length of Visible Light 10h 16m
Length of Day
9h 13m
Waning Gibbous, 49% of the Moon is Illuminated
Dec 6
Waning Gibbous
Dec 13
New
Dec 19
First Quarter
Dec 28
Full
Jan 4
Last Quarter

Hourly Weather History & Observations

Time (CST) Temp. Windchill Dew Point Humidity Pressure Visibility Wind Dir Wind Speed Gust Speed Precip Events Conditions
12:53 AM 43.0 °F 34.0 °F 34.0 °F 71% 30.00 in 10.0 mi SSE 21.9 mph 26.5 mph N/A   Overcast
1:53 AM 42.1 °F 34.9 °F 34.0 °F 73% 29.99 in 10.0 mi SSE 13.8 mph 24.2 mph N/A   Overcast
2:53 AM 43.0 °F 35.1 °F 34.0 °F 71% 29.97 in 10.0 mi SSE 17.3 mph 24.2 mph N/A   Overcast
3:53 AM 43.0 °F 35.7 °F 34.0 °F 71% 29.95 in 10.0 mi SSE 15.0 mph - N/A   Scattered Clouds
4:53 AM 43.0 °F 35.1 °F 34.0 °F 71% 29.93 in 10.0 mi SSE 17.3 mph - N/A   Mostly Cloudy
5:53 AM 44.1 °F 36.2 °F 34.0 °F 68% 29.93 in 10.0 mi SSE 18.4 mph 23.0 mph N/A   Mostly Cloudy
6:53 AM 44.1 °F 37.4 °F 33.1 °F 65% 29.93 in 10.0 mi SSE 13.8 mph - N/A   Partly Cloudy
7:53 AM 44.1 °F 36.8 °F 33.1 °F 65% 29.92 in 10.0 mi South 16.1 mph - N/A   Partly Cloudy
8:53 AM 44.1 °F 38.6 °F 33.1 °F 65% 29.93 in 10.0 mi South 10.4 mph - N/A   Overcast
9:53 AM 46.0 °F 41.0 °F 34.0 °F 63% 29.93 in 10.0 mi South 10.4 mph - N/A   Overcast
10:53 AM 46.9 °F - 34.0 °F 61% 29.91 in 10.0 mi SSW 10.4 mph - N/A   Overcast
11:53 AM 48.9 °F - 35.1 °F 59% 29.89 in 10.0 mi SW 11.5 mph - N/A   Overcast
12:53 PM 48.0 °F - 36.0 °F 63% 29.89 in 10.0 mi WNW 12.7 mph - 0.00 in Rain Light Rain
1:53 PM 45.0 °F 41.2 °F 39.0 °F 80% 29.89 in 10.0 mi West 6.9 mph - 0.00 in   Overcast
2:53 PM 44.1 °F 40.8 °F 39.9 °F 85% 29.90 in 10.0 mi West 5.8 mph - 0.01 in Rain Light Rain
3:53 PM 43.0 °F 40.3 °F 41.0 °F 93% 29.91 in 10.0 mi WSW 4.6 mph - 0.00 in   Overcast
4:53 PM 42.1 °F 39.2 °F 41.0 °F 96% 29.92 in 10.0 mi NW 4.6 mph - 0.00 in   Overcast
5:53 PM 42.1 °F 37.1 °F 37.0 °F 82% 29.94 in 10.0 mi NNW 8.1 mph - N/A   Overcast
6:53 PM 41.0 °F 38.0 °F 37.9 °F 89% 29.95 in 10.0 mi NW 4.6 mph - N/A   Overcast
7:53 PM 39.9 °F - 37.0 °F 89% 29.96 in 10.0 mi Calm Calm - N/A   Overcast
8:53 PM 39.0 °F 34.8 °F 37.0 °F 93% 29.97 in 10.0 mi NW 5.8 mph - N/A   Overcast
9:53 PM 39.0 °F 34.8 °F 35.1 °F 86% 29.97 in 10.0 mi North 5.8 mph - N/A   Mostly Cloudy
10:53 PM 37.0 °F - 33.1 °F 86% 29.98 in 10.0 mi Calm Calm - 0.01 in   Overcast
11:53 PM 36.0 °F 32.1 °F 32.0 °F 86% 29.98 in 10.0 mi NW 4.6 mph - N/A   Overcast